[[{"header":{"parameterUnit":"m.s-1","parameterCategory":1,"la1":30.2991,"la2":30.254,"lo1":-89.0895,"lo2":-89.0444,"dy":0.0017,"dx":0.0017,"nx":28,"ny":28,"refTime":"2023-10-01T03:00:00:Z","depth":0,"parameterNumber":2,"parameterNumberName":"U-component_of_WINDS"},"data":[0,0,0,0,0,0,0,0,0,0,0,0,0,0,0,0,0,0,0,0,0,0,0,0,0,0,0,0,0,0,0,0,0,0,0,0,0,0,0,0,0,0,0,0,0,0,0,0,0,0,0,0,0,0,0,0,0,0,-4.5611,-4.561,0,-4.5589,-4.5589,-4.5589,-4.5441,-4.5438,-4.5434,-4.5431,-4.5413,-4.5416,-4.5419,0,0,0,0,0,0,0,0,0,0,0,0,0,-4.5528,-4.553,-4.5611,-4.561,-4.561,-4.5589,-4.5589,-4.5589,-4.5442,-4.5438,-4.5433,-4.5429,-4.5412,-4.5415,-4.5419,0,0,0,0,0,0,0,0,0,0,0,0,0,-4.5542,-4.5531,-4.5611,-4.5534,-4.5527,-4.559,-4.5589,-4.5589,-4.5443,-4.5437,-4.5432,-4.5427,-4.5411,-4.5415,-4.5419,-4.5555,0,0,-4.5433,-4.5435,0,0,0,0,0,0,0,0,-4.5541,-4.5545,-4.5546,-4.5539,-4.5532,-4.5512,-4.5553,-4.5578,-4.5444,-4.5475,-4.5431,-4.5424,-4.5451,-4.5451,-4.546,-4.5554,-4.5553,-4.5433,-4.5436,-4.5438,-4.5439,0,0,0,0,0,0,0,-4.554,-4.5545,-4.5602,-4.5546,-4.5537,-4.5502,-4.5498,-4.5557,-4.5494,-4.5472,-4.5461,-4.546,-4.5446,-4.5456,-4.5458,-4.5553,-4.5433,-4.5437,-4.544,-4.5441,-4.5761,-4.5767,0,0,0,0,0,0,-4.5549,-4.5545,-4.5603,-4.5602,-4.5523,-4.5508,-4.5504,-4.5524,-4.5493,-4.5482,-4.5465,-4.5454,-4.5451,-4.5453,-4.5457,-4.5616,-4.5438,-4.5442,-4.5444,-4.5755,-4.5762,-4.5769,0,0,0,0,0,0,-4.5548,-4.5556,-4.5604,-4.557,-4.5574,-4.5515,-4.554,-4.5527,-4.5536,-4.5487,-4.5476,-4.5487,-4.5447,-4.5451,-4.5532,-4.5613,-4.5444,-4.5448,-4.5748,-4.5757,-4.5765,-4.5933,0,0,0,0,0,0,-4.5546,-4.5556,-4.5606,-4.5573,-4.5576,-4.5678,-4.5545,-4.553,-4.5544,-4.5528,-4.5504,-4.5495,-4.5443,-4.5526,-4.5536,-4.5616,-4.5451,-4.5741,-4.5752,-4.5763,-4.592,-4.5947,-4.5969,0,0,0,0,0,-4.5544,-4.5654,-4.5609,-4.5617,-4.5637,-4.5683,-4.5685,-4.5622,-4.5551,-4.5601,-4.557,-4.5496,-4.5602,-4.5536,-4.5546,-4.5628,-4.5735,-4.5749,-4.5762,-4.5909,-4.5942,-4.5969,0,0,0,0,0,0,-4.5699,-4.5648,-4.5598,-4.57,-4.5697,-4.5658,-4.572,-4.5657,-4.5675,-4.566,-4.5582,-4.5578,-4.5672,-4.5657,-4.5585,-4.5759,-4.5656,-4.5672,-4.5765,-4.5795,-4.5819,-4.5822,-4.5455,0,0,0,0,0,-4.5746,-4.5786,-4.574,-4.5835,-4.5836,-4.5779,-4.5796,-4.5748,-4.5742,-4.574,-4.5714,-4.5713,-4.5746,-4.5769,-4.5797,-4.5917,-4.5911,-4.5979,-4.6003,-4.6024,-4.6039,-4.6105,-4.6135,-4.5812,-4.5812,-4.5812,0,0,-4.5841,-4.5819,-4.5849,-4.5866,-4.5857,-4.5903,-4.5778,-4.5831,-4.5865,-4.5748,-4.5824,-4.5806,-4.5799,-4.5901,-4.5945,-4.5892,-4.6127,-4.604,-4.6057,-4.6061,-4.6121,-4.6152,-4.6179,-4.5821,-4.5819,-4.5818,0,0,-4.604,-4.6026,-4.6104,-4.6099,-4.6088,-4.6049,-4.6069,-4.604,-4.6023,-4.6097,-4.6011,-4.6051,-4.6109,-4.6108,-4.6116,-4.6317,-4.625,-4.6328,-4.6457,-4.6522,-4.6547,-4.6569,-4.6644,-4.6671,-4.6343,-4.6343,-4.6343,0,-4.6161,-4.6225,-4.6153,-4.6213,-4.6224,-4.6119,-4.62,-4.6198,-4.6198,-4.6209,-4.6149,-4.6221,-4.6209,-4.6311,-4.636,-4.6369,-4.6391,-4.6331,-4.6549,-4.6571,-4.659,-4.6661,-4.6689,-4.6353,-4.6352,-4.6351,-4.635,0,-4.6376,-4.6422,-4.6487,-4.6489,-4.6507,-4.6577,-4.6518,-4.6545,-4.6495,-4.6464,-4.6543,-4.6524,-4.6548,-4.6568,-4.652,-4.6665,-4.6633,-4.6563,-4.6458,-4.6632,-4.6697,-4.6723,-4.6367,-4.6363,-4.636,-4.6358,0,0,-4.6672,-4.6634,-4.6659,-4.666,-4.6641,-4.6676,-4.6742,-4.6764,-4.6791,-4.6794,-4.685,-4.6902,-4.6838,-4.6846,-4.6797,-4.6854,-4.7018,-4.6777,-4.6776,-4.6825,-4.718,-4.7235,-4.7267,-4.6973,-4.6978,-4.6982,-4.7182,0,-4.6864,-4.6974,-4.6912,-4.7032,-4.7075,-4.6977,-4.7036,-4.7032,-4.7005,-4.7039,-4.7009,-4.7049,-4.6959,-4.6964,-4.7016,-4.6987,-4.7089,-4.6972,-4.7027,-4.703,-4.7034,-4.73,-4.7357,-4.7546,-4.7206,-4.721,-4.7213,0,-4.7103,-4.7117,-4.7242,-4.7217,-4.7232,-4.7286,-4.7302,-4.7335,-4.733,-4.7306,-4.7317,-4.7255,-4.7321,-4.7217,-4.7308,-4.723,-4.7249,-4.7239,-4.7244,-4.7249,-4.7134,-4.7314,-4.7605,-4.7635,-4.7252,-4.7249,-4.7246,0,-4.731,-4.736,-4.7441,-4.7444,-4.7417,-4.7457,-4.7448,-4.7436,-4.7455,-4.7469,-4.7481,-4.7504,-4.7517,-4.7537,-4.7484,-4.7413,-4.7584,-4.7474,-4.7569,-4.7571,-4.7611,-4.7609,-4.7911,-4.762,-4.7619,-4.7619,-4.7618,0,-4.7533,-4.7614,-4.7534,-4.7584,-4.7672,-4.7601,-4.7691,-4.7671,-4.7663,-4.7709,-4.7626,-4.7672,-4.7597,-4.7637,-4.7595,-4.7679,-4.7685,-4.767,-4.7658,-4.7679,-4.7681,-4.7691,-4.7678,-4.7626,-4.7624,-4.7623,-4.7622,0,-4.7779,-4.7729,-4.7811,-4.7779,-4.7773,-4.784,-4.7812,-4.7859,-4.7826,-4.7886,-4.7896,-4.7846,-4.7888,-4.7837,-4.7874,-4.7846,-4.7961,-4.7929,-4.7963,-4.7955,-4.8053,-4.8046,-4.8374,-4.8415,-4.8095,-4.8098,-4.8101,0,-4.7926,-4.7986,-4.796,-4.7984,-4.798,-4.802,-4.8039,-4.7972,-4.7995,-4.7994,-4.8042,-4.8076,-4.8101,-4.8173,-4.8141,-4.817,-4.8139,-4.8252,-4.8143,-4.8163,-4.8144,-4.8142,-4.815,-4.8276,-4.8279,-4.8282,-4.8285,0,-4.8192,-4.8165,-4.8193,-4.8215,-4.8239,-4.8252,-4.826,-4.8285,-4.8216,-4.8246,-4.8287,-4.8307,-4.8345,-4.8382,-4.8402,-4.8394,-4.8331,-4.8319,-4.8343,-4.8366,-4.8384,-4.8378,-4.8026,-4.8313,-4.831,-4.8308,-4.8306,-4.8305,-4.8395,-4.8444,-4.8434,-4.847,-4.8469,-4.8478,-4.8521,-4.8494,-4.8527,-4.8553,-4.8511,-4.8565,-4.856,-4.8581,-4.8581,-4.8623,-4.8575,-4.8609,-4.8618,-4.8628,-4.8644,-4.8376,-4.8626,-4.8625,-4.8625,-4.8624,-4.8623,0,-4.8659,-4.8648,-4.8681,-4.8695,-4.8724,-4.8658,-4.8664,-4.8693,-4.8741,-4.8741,-4.8767,-4.8817,-4.8853,-4.8824,-4.8854,-4.8894,-4.8866,-4.8905,-4.8902,-4.8902,-4.8684,-4.8661,-4.8927,-4.8927,-4.8927,-4.8927,-4.8927,-4.8927,-4.88,-4.8881,-4.8853,-4.8934,-4.8922,-4.8973,-4.8983,-4.8992,-4.8992,-4.9051,-4.908,-4.9061,-4.9051,-4.908,-4.9111,-4.9102,-4.9118,-4.9169,-4.915,-4.8947,-4.8917,-4.8889,-4.8867,-4.9172,-4.9173,-4.9364,-4.9366,-4.9368]},{"header":{"parameterUnit":"m.s-1","parameterCategory":1,"la1":30.2991,"la2":30.254,"lo1":-89.0895,"lo2":-89.0444,"dy":0.0017,"dx":0.0017,"nx":28,"ny":28,"refTime":"2023-10-01T03:00:00:Z","depth":0,"parameterNumber":3,"parameterNumberName":"V-component_of_WINDS"},"data":[0,0,0,0,0,0,0,0,0,0,0,0,0,0,0,0,0,0,0,0,0,0,0,0,0,0,0,0,0,0,0,0,0,0,0,0,0,0,0,0,0,0,0,0,0,0,0,0,0,0,0,0,0,0,0,0,0,0,0.8086,0.8085,0,0.8019,0.8018,0.8018,0.8008,0.8009,0.801,0.801,0.7936,0.7933,0.7931,0,0,0,0,0,0,0,0,0,0,0,0,0,0.82,0.8198,0.8086,0.8085,0.8084,0.8019,0.8018,0.8017,0.8008,0.8009,0.801,0.8011,0.7937,0.7933,0.793,0,0,0,0,0,0,0,0,0,0,0,0,0,0.8144,0.8197,0.8086,0.8072,0.807,0.8019,0.8018,0.8017,0.8008,0.8009,0.801,0.8011,0.7938,0.7934,0.793,0.7887,0,0,0.7918,0.7916,0,0,0,0,0,0,0,0,0.8147,0.8139,0.8075,0.8073,0.8071,0.8023,0.8031,0.7973,0.8008,0.8031,0.801,0.8011,0.7964,0.7958,0.7943,0.7883,0.788,0.7918,0.7915,0.7914,0.7913,0,0,0,0,0,0,0,0.8151,0.8142,0.8059,0.8074,0.8071,0.8067,0.806,0.802,0.7993,0.8029,0.8029,0.8021,0.7963,0.7947,0.7941,0.7879,0.7918,0.7914,0.7912,0.791,0.778,0.7779,0,0,0,0,0,0,0.8158,0.8145,0.8061,0.8057,0.8112,0.8065,0.8057,0.8037,0.7993,0.7987,0.8021,0.8021,0.7953,0.7946,0.7938,0.7884,0.7914,0.791,0.7908,0.7781,0.7779,0.7778,0,0,0,0,0,0,0.816,0.8151,0.8064,0.8101,0.809,0.8062,0.804,0.8036,0.8019,0.7987,0.7981,0.8009,0.7953,0.7944,0.79,0.7881,0.7908,0.7905,0.7782,0.778,0.7779,0.7775,0,0,0,0,0,0,0.8164,0.8152,0.8136,0.8101,0.8088,0.8028,0.8039,0.8034,0.8014,0.8014,0.7975,0.7969,0.7953,0.7906,0.7896,0.7876,0.7902,0.7784,0.7781,0.7779,0.7776,0.7773,0.777,0,0,0,0,0,0.8168,0.8136,0.8135,0.8125,0.8068,0.8027,0.8019,0.8004,0.8012,0.7995,0.7974,0.797,0.7886,0.7901,0.789,0.7869,0.7785,0.7782,0.7779,0.7778,0.7774,0.777,0,0,0,0,0,0,0.8167,0.8131,0.813,0.8086,0.806,0.8026,0.8004,0.8,0.7969,0.797,0.7951,0.7942,0.7898,0.788,0.7898,0.7824,0.7835,0.7831,0.7838,0.7834,0.7831,0.7835,0.7899,0,0,0,0,0,0.8162,0.8134,0.8103,0.8067,0.8055,0.8032,0.8013,0.8004,0.7975,0.7963,0.7939,0.791,0.7876,0.7854,0.7822,0.7775,0.7765,0.7755,0.7752,0.7749,0.7744,0.7717,0.7711,0.777,0.777,0.777,0,0,0.815,0.8128,0.811,0.8067,0.8045,0.8015,0.8022,0.7989,0.7966,0.7958,0.7915,0.7896,0.7862,0.7816,0.7795,0.7799,0.7727,0.7746,0.7744,0.774,0.7713,0.7708,0.7703,0.7768,0.7768,0.7768,0,0,0.8113,0.8094,0.8062,0.8041,0.801,0.7995,0.7988,0.7955,0.7942,0.79,0.7893,0.7864,0.7808,0.7783,0.7764,0.772,0.7714,0.771,0.7693,0.7666,0.7661,0.7657,0.764,0.7634,0.7706,0.7706,0.7706,0,0.8102,0.8057,0.8045,0.8013,0.7993,0.7988,0.7954,0.7934,0.7893,0.7878,0.7885,0.7814,0.7791,0.7739,0.7728,0.7713,0.7702,0.7713,0.7664,0.7659,0.7655,0.7638,0.7631,0.7705,0.7705,0.7705,0.7705,0,0.8044,0.8014,0.7991,0.7954,0.7932,0.7899,0.788,0.786,0.7853,0.7837,0.7793,0.7766,0.7727,0.7715,0.7707,0.7661,0.7665,0.7668,0.7678,0.7649,0.7632,0.7626,0.7705,0.7705,0.7705,0.7705,0,0,0.8001,0.796,0.7952,0.7935,0.7901,0.7876,0.7842,0.7807,0.7789,0.7762,0.7731,0.7685,0.7688,0.7666,0.7655,0.7632,0.7597,0.7638,0.7637,0.7629,0.7543,0.7539,0.7532,0.7595,0.7594,0.7593,0.7545,0,0.7959,0.7901,0.789,0.7838,0.7809,0.7804,0.7775,0.775,0.7735,0.7707,0.7689,0.7656,0.7663,0.765,0.7627,0.7606,0.7579,0.761,0.7564,0.7563,0.757,0.7524,0.7519,0.7475,0.7539,0.7538,0.7537,0,0.79,0.7873,0.782,0.779,0.7777,0.7751,0.7718,0.7692,0.7664,0.7654,0.7631,0.7623,0.7587,0.7602,0.755,0.7571,0.7552,0.7539,0.7537,0.753,0.7546,0.7512,0.7461,0.7453,0.7527,0.7528,0.7529,0,0.7871,0.7822,0.7783,0.7769,0.7735,0.7716,0.7701,0.7674,0.7653,0.7624,0.7611,0.7577,0.7558,0.7532,0.7515,0.7528,0.7464,0.7477,0.7453,0.7453,0.7436,0.7437,0.7379,0.7429,0.7429,0.743,0.743,0,0.7822,0.7789,0.777,0.7746,0.7708,0.7696,0.7659,0.7643,0.7619,0.7591,0.7585,0.7558,0.754,0.7509,0.7496,0.7454,0.7446,0.7436,0.7432,0.7434,0.7435,0.7419,0.742,0.7428,0.7428,0.7429,0.7429,0,0.7782,0.7768,0.7726,0.7698,0.769,0.7663,0.7638,0.7614,0.76,0.7564,0.7555,0.7532,0.7496,0.7479,0.7434,0.7425,0.7377,0.7376,0.7386,0.7384,0.7359,0.7361,0.7286,0.7275,0.7336,0.7335,0.7335,0,0.775,0.7725,0.7695,0.7677,0.7661,0.7632,0.7612,0.7599,0.7578,0.7545,0.7524,0.7489,0.746,0.7403,0.7381,0.7347,0.7344,0.732,0.7338,0.7341,0.734,0.734,0.7337,0.7315,0.7315,0.7314,0.7314,0,0.7695,0.769,0.7662,0.7632,0.7609,0.7585,0.756,0.7545,0.7529,0.7505,0.747,0.7448,0.7404,0.7368,0.7333,0.7314,0.731,0.731,0.7301,0.7301,0.7307,0.7301,0.7374,0.731,0.731,0.7311,0.7311,0.7311,0.7655,0.7632,0.7608,0.7578,0.7559,0.7537,0.7512,0.7497,0.7468,0.7432,0.7427,0.7389,0.7361,0.7314,0.7295,0.7264,0.7268,0.7257,0.7254,0.725,0.7248,0.7316,0.7258,0.7258,0.7258,0.7258,0.7258,0,0.7597,0.7582,0.7555,0.7522,0.7498,0.7501,0.7474,0.7453,0.742,0.7396,0.7369,0.7328,0.7294,0.7271,0.7236,0.7215,0.7212,0.7206,0.7205,0.7201,0.7247,0.7256,0.7209,0.7209,0.7209,0.7209,0.7209,0.7209,0.7564,0.7524,0.7517,0.7468,0.7453,0.7418,0.7402,0.7381,0.7362,0.7317,0.729,0.7276,0.7252,0.7216,0.7184,0.7178,0.7164,0.7157,0.715,0.7193,0.7198,0.7203,0.7211,0.7155,0.7155,0.7107,0.7106,0.7106]}]]